Tracking 30509 objects as of 18-May-2025
HD Live streaming from Space Station
objects crossing your sky now

IRIDIUM 178

Track IRIDIUM 178 now!
10-day predictions
IRIDIUM 178 is classified as:


NORAD ID: 56729
Int'l Code: 2023-068V
Perigee: 634.2 km
Apogee: 637.3 km
Inclination: 86.7 °
Period: 97.3 minutes
Semi major axis: 7006 km
RCS: Unknown
Launch date: May 20, 2023
Source: United States (US)
Launch site: AIR FORCE WESTERN TEST RANGE (AFWTR)
Your satellite tracking list
Your tracking list is empty




NASA's NSSDC Master Catalog

Two Line Element Set (TLE):
1 56729U 23068V   25137.63947485  .00001535  00000-0  19862-3 0  9995
2 56729  86.6592 190.5755 0002223  89.1428 271.0048 14.80230111107854
Source of the keplerian elements: AFSPC